WetterOnline ( http://www.wetteronline.de )

Wetter aktuell Freiburg

Aktuelles Wetter: Freiburg/Flugplatz (236m)

6-stündlich | Neueste Meldungen
Ortszeit Temperatur Wetter
Fr, 22.02. 1:00 4.4° C bewölkt
Do, 21.02. 19:00 9.9° C bedeckt
Do, 21.02. 13:00 14.4° C wolkenlos
Do, 21.02. 7:00 0.7° C wolkig
Do, 21.02. 1:00 1.8° C leicht bewölkt
Mi, 20.02. 19:00 8.3° C wolkig
Mi, 20.02. 13:00 10.8° C bewölkt
Mi, 20.02. 7:00 2.1° C wolkig
Ortszeit Temperatur Wetter
Fr, 22.02. 2:00 5.8° C bedeckt
Fr, 22.02. 1:50 5.8° C bedeckt
Fr, 22.02. 1:40 5.7° C bedeckt
Fr, 22.02. 1:30 5.6° C bedeckt
Fr, 22.02. 1:20 5.6° C bedeckt
Fr, 22.02. 1:10 5.0° C bewölkt
Fr, 22.02. 1:00 4.4° C bewölkt
Fr, 22.02. 0:30 5.5° C leicht bewölkt
Fr, 22.02. 0:00 5.5° C bewölkt
Do, 21.02. 23:30 5.1° C bewölkt
Do, 21.02. 23:00 4.6° C fast wolkenlos
Ortszeit Relative Feuchte Sichtweite
Fr, 22.02. 1:00 86% 8 km
Do, 21.02. 19:00 64% 27 km
Do, 21.02. 13:00 47% 26 km
Do, 21.02. 7:00 99% 1.9 km
Do, 21.02. 1:00 92% 7 km
Mi, 20.02. 19:00 70% 26 km
Mi, 20.02. 13:00 66% 11 km
Mi, 20.02. 7:00 95% 6 km
Ortszeit Relative Feuchte Sichtweite
Fr, 22.02. 2:00 83% 11 km
Fr, 22.02. 1:50 83% -
Fr, 22.02. 1:40 86% -
Fr, 22.02. 1:30 83% 10 km
Fr, 22.02. 1:20 83% -
Fr, 22.02. 1:10 86% -
Fr, 22.02. 1:00 86% 8 km
Fr, 22.02. 0:30 83% 16 km
Fr, 22.02. 0:00 83% 18 km
Do, 21.02. 23:30 84% 15 km
Do, 21.02. 23:00 85% 17 km
Ortszeit Niederschlagsmenge Niederschlagsart
Fr, 22.02. 1:00 0.0 l/m2 in 6 Std. -
Do, 21.02. 19:00 0.0 l/m2 in 12 Std. -
Do, 21.02. 13:00 0.0 l/m2 in 6 Std. -
Do, 21.02. 7:00 0.0 l/m2 in 12 Std. -
Do, 21.02. 1:00 0.0 l/m2 in 6 Std. -
Mi, 20.02. 19:00 0.0 l/m2 in 12 Std. -
Mi, 20.02. 13:00 0.0 l/m2 in 6 Std. -
Mi, 20.02. 7:00 0.0 l/m2 in 12 Std. -
Ortszeit Niederschlagsmenge Niederschlagsart
Fr, 22.02. 2:00 0.1 l/m2 in 1 Std. Regen
Fr, 22.02. 1:50 keine Meldung -
Fr, 22.02. 1:40 keine Meldung -
Fr, 22.02. 1:30 0.0 l/m2 in 1 Std. -
Fr, 22.02. 1:20 keine Meldung -
Fr, 22.02. 1:10 keine Meldung -
Fr, 22.02. 1:00 0.0 l/m2 in 1 Std. -
Fr, 22.02. 0:30 0.0 l/m2 in 1 Std. -
Fr, 22.02. 0:00 0.0 l/m2 in 1 Std. -
Do, 21.02. 23:30 0.0 l/m2 in 1 Std. -
Do, 21.02. 23:00 0.0 l/m2 in 1 Std. -
Ortszeit Stärke Spitze Richtung
km/h Bft. km/h Grad Sektor
Fr, 22.02. 1:00 4 1 7 30° NO
Do, 21.02. 19:00 2 1 17 330° NW
Do, 21.02. 13:00 6 1 9 250° W
Do, 21.02. 7:00 2 1 6 180° S
Do, 21.02. 1:00 2 1 13 350° N
Mi, 20.02. 19:00 6 1 13 150° SO
Mi, 20.02. 13:00 4 1 11 40° NO
Mi, 20.02. 7:00 4 1 11 170° S
Ortszeit Stärke Spitze Richtung
km/h Bft. km/h Grad Sektor
Fr, 22.02. 2:00 6 1 9 310° NW
Fr, 22.02. 1:50 6 1 - 310° NW
Fr, 22.02. 1:40 4 1 - 220° SW
Fr, 22.02. 1:30 4 1 7 170° S
Fr, 22.02. 1:20 4 1 - 170° S
Fr, 22.02. 1:10 4 1 - 150° SO
Fr, 22.02. 1:00 4 1 7 30° NO
Fr, 22.02. 0:30 4 1 4 190° S
Fr, 22.02. 0:00 0 0 4 - -
Do, 21.02. 23:30 0 0 4 - -
Do, 21.02. 23:00 4 1 7 10° N
Ortszeit Untergrenze Bedeckung Gattung
total tief tief mittel hoch
Fr, 22.02. 1:00 1500 m 7/8 7/8 - - -
Do, 21.02. 19:00 3600 m 8/8 8/8 - - -
Do, 21.02. 13:00 - 0/8 0/8 - - -
Do, 21.02. 7:00 10500 m 7/8 0/8 - - -
Do, 21.02. 1:00 4200 m 3/8 3/8 - - -
Mi, 20.02. 19:00 1800 m 8/8 1/8 - - -
Mi, 20.02. 13:00 1200 m 7/8 7/8 - - -
Mi, 20.02. 7:00 9000 m 8/8 0/8 - - -
Ortszeit Bedeckungsgrad in Achtel und Wolkenuntergrenze
Fr, 22.02. 2:00 7(1500m) 8(2100m)
Fr, 22.02. 1:50 7(1500m) 8(2100m)
Fr, 22.02. 1:40 7(1500m) 8(2100m)
Fr, 22.02. 1:30 7(1500m) 8(2100m)
Fr, 22.02. 1:20 7(1500m) 8(2100m)
Fr, 22.02. 1:10 7(1500m) 7(2100m) 7(2400m)
Fr, 22.02. 1:00 4(1500m) 7(2400m)
Fr, 22.02. 0:30 3(1800m) 4(2400m)
Fr, 22.02. 0:00 7(1800m)
Do, 21.02. 23:30 7(2100m)
Do, 21.02. 23:00 1(2700m)
Ortszeit Luftdruck NN (hPa) Tendenz (hPa in 3 Std.)
Fr, 22.02. 1:00 1033 + 1,1
Do, 21.02. 19:00 1030 + 1,2
Do, 21.02. 13:00 1028 - 0,7
Do, 21.02. 7:00 1030 + 0,4
Do, 21.02. 1:00 1028 + 0,7
Mi, 20.02. 19:00 1026 + 0,4
Mi, 20.02. 13:00 1026 + 0,6
Mi, 20.02. 7:00 1025 + 0,5
Ortszeit Luftdruck NN (hPa) Tendenz (hPa in 3 Std.)
Fr, 22.02. 2:00 1033 + 0,8
Fr, 22.02. 1:50 1033 keine Meldung
Fr, 22.02. 1:40 1033 keine Meldung
Fr, 22.02. 1:30 1033 + 1,1
Fr, 22.02. 1:20 1033 keine Meldung
Fr, 22.02. 1:10 1033 keine Meldung
Fr, 22.02. 1:00 1033 + 1,1
Fr, 22.02. 0:30 1032 + 1,1
Fr, 22.02. 0:00 1032 + 1,2
Do, 21.02. 23:30 1032 + 1,4
Do, 21.02. 23:00 1032 + 1,4
Ortszeit Schneehöhe (cm)
Fr, 22.02. 1:00 0
Do, 21.02. 19:00 0
Do, 21.02. 13:00 0
Do, 21.02. 7:00 0
Do, 21.02. 1:00 0
Mi, 20.02. 19:00 0
Mi, 20.02. 13:00 0
Mi, 20.02. 7:00 0
Ortszeit Schneehöhe (cm)
Fr, 22.02. 2:00 0
Fr, 22.02. 1:50 0
Fr, 22.02. 1:40 0
Fr, 22.02. 1:30 0
Fr, 22.02. 1:20 0
Fr, 22.02. 1:10 0
Fr, 22.02. 1:00 0
Fr, 22.02. 0:30 0
Fr, 22.02. 0:00 0
Do, 21.02. 23:30 0
Do, 21.02. 23:00 0
Link zu dieser Seite / Seite empfehlen

Das Wetter in ...